Regional Weather Roundup
Issued by NWS

Home | Current Version | Previous Version | Graphics & Text | Print | Product List | Glossary On
Versions: 1 2 3 4 5 6 7 8 9 10 11 12 13 14 15 16 17 18 19 20 21 22 23 24 25 26 27 28 29 30 31 32 33 34 35 36 37 38 39 40 41 42 43 44 45 46 47 48 49 50
150
ASUS43 KBIS 221910
RWRND

NORTH DAKOTA REGIONAL WEATHER ROUNDUP
NATIONAL WEATHER SERVICE BISMARCK ND
100 PM CST SUN JAN 22 2017

NOTE: "FAIR" INDICATES FEW OR NO CLOUDS BELOW 12,000 FEET WITH NO
SIGNIFICANT WEATHER AND/OR OBSTRUCTIONS TO VISIBILITY.


NDZ001>003-009>011-017-222000-
NORTHWEST NORTH DAKOTA

CITY           SKY/WX    TMP DP  RH WIND       PRES   REMARKS
WILLISTON      CLOUDY    31  27  85 W14       29.80F
MINOT          CLOUDY    33  30  88 W10       29.75F
MINOT AFB      CLOUDY    31  29  92 NW9       29.74F
$$

NDZ018>021-031>035-040>046-222000-
SOUTHWEST NORTH DAKOTA

CITY           SKY/WX    TMP DP  RH WIND       PRES   REMARKS
BISMARCK       CLOUDY    33  29  85 W7        29.80F
DICKINSON      CLOUDY    26  24  92 NW17      29.78F WCI  13
GARRISON         N/A     32  28  85 W15       29.77S
HETTINGER ARPT CLOUDY    28  25  88 W21       29.83S WCI  15
$$

NDZ004>008-012>016-024-026-027-054-222000-
NORTHEAST NORTH DAKOTA

CITY           SKY/WX    TMP DP  RH WIND       PRES   REMARKS
GRAND FORKS    CLOUDY    35  29  78 W7        29.73F
GRND FRKS AFB  CLOUDY    33  29  83 W8        29.73S
DEVILS LAKE    CLOUDY    30  28  92 W12       29.73S FOG
$$

NDZ022-023-025-028>030-036>039-047>053-222000-
SOUTHEAST NORTH DAKOTA

CITY           SKY/WX    TMP DP  RH WIND       PRES   REMARKS
FARGO          CLOUDY    36  32  85 W8        29.74F FOG
JAMESTOWN      CLOUDY    32  29  88 NW18      29.73F
$$





USA.gov is the U.S. government's official web portal to all federal, state and local government web resources and services.